Skip Page Navigation
NASA JPL Caltech
NASA Logo - Jet Propulsion Laboratory + View the NASA Portal
+ Center for Near-Earth Object Studies
JPL Home Earth Solar System Stars & Galaxies Technology
JPL Solar System Dynamics
BODIES ORBITS EPHEMERIDES TOOLS PHYSICAL DATA DISCOVERY FAQ SITE MAP
IMPORTANT: The SSD Announcement email list is now available. Major changes are coming in the near future, including possible hostname and/or URL changes. To be notified of such changes, subscribe to this email list.

Please visit this page for more details.


JPL Small-Body Database Browser
Search: [ help ]  
487585 (2015 FM332)
Classification: Inner Main-belt Asteroid          SPK-ID: 2487585
Ephemeris | Orbit Diagram | Orbital Elements | Mission Design | Physical Parameters | Discovery Circumstances ]

[ show orbit diagram ]
Orbital Elements at Epoch 2458600.5 (2019-Apr-27.0) TDB
Reference: JPL 10 (heliocentric ecliptic J2000)
 Element Value Uncertainty (1-sigma)   Units 
e .07488487077965536 6.1108e-07  
a 1.816479051783531 6.846e-08 au
q 1.68045225271677 1.0494e-06 au
i 18.36204665094003 1.5152e-05 deg
node 193.1385282678336 2.1166e-05 deg
peri 230.3477205957757 0.00026834 deg
M 359.9812667117264 0.00019983 deg
tp 2458600.546532408608
(2019-Apr-27.04653241)
0.00049635 TDB
period 894.2192558029876
2.45
5.0552e-05
1.384e-07
d
yr
n .4025858285468574 2.2759e-08 deg/d
Q 1.952505850850291 7.3587e-08 au
  Orbit Determination Parameters
   # obs. used (total)      39  
   data-arc span      3769 days (10.32 yr)  
   first obs. used      2006-09-26  
   last obs. used      2017-01-20  
   planetary ephem.      DE431  
   SB-pert. ephem.      SB431-N16  
   condition code      1  
   norm. resid. RMS      .56836  
   source      ORB  
   producer      Otto Matic  
   solution date      2017-Apr-09 00:15:40  

Additional Information
 Earth MOID = .714522 au 
 Jupiter MOID = 3.22486 au 
 T_jup = 3.983 
[ show covariance matrix ]

Ephemeris | Orbit Diagram | Orbital Elements | Mission Design | Physical Parameters | Discovery Circumstances ]

Physical Parameter Table
Parameter Symbol Value Units Sigma Reference Notes
absolute magnitude H 19.3   n/a E2016-TE9  

487585 (2015 FM332)          Discovered 2006-Sep-26 by Spacewatch at Kitt Peak
Reference: Last Updated: 2017-03-14

Alternate Designations
 2015 FM332 = 2006 SK229 = 2011 SL85 
Ephemeris | Orbit Diagram | Orbital Elements | Mission Design | Physical Parameters | Discovery Circumstances ]
ABOUT SSD CREDITS/AWARDS PRIVACY/COPYRIGHT GLOSSARY LINKS
FirstGov
(server date/time)  
NASA Home Page
Site Manager:   Ryan S. Park
Webmaster  Alan B. Chamberlin